User: anonymous   Login
Location: Bergnerzell
(49.1816°N, 10.2565°E)
Time: 21:03:42
(UTC+00:00)
Language:

Cosmos 1300 Rocket - Orbit

View from above orbital plane
View from above orbital plane
View from above satellite
View from above satellite

Ground track
Ground track

The orbit data is extracted from the following two-line orbital elements,

1 12786U 81082B   24205.30709456  .00001119  00000-0  12509-3 0  9992
2 12786  82.4866  42.6463 0016488 336.3031  23.7424 14.86006067298550
Epoch (UTC): 23 July 2024 07:22:12
Eccentricity: 0.0016488
inclination: 82.4866°
perigee height: 599 km
apogee height: 622 km
right ascension of ascending node: 42.6463°
argument of perigee: 336.3031°
revolutions per day: 14.86006067
mean anomaly at epoch: 23.7424°
orbit number at epoch: 29855

The dashed part of the orbit path shows where the satellite is in the earth's shadow,  

DLR